Content
SEND FEEDBACK

Daily
Averages
Monthly
Summary
United States of America

MANGILAO, GUAM


Home > North America > United States > Guam
Elevation: 60 feet     Latitude: 13 27N     Longitude: 144 49E

WEATHER
 
SELECT A DAY
Number of Records: 342,273;   Date Range: 1/1/95 - 8/30/14
 
SHARE

PRINT THIS DATA

[ ← Previous Day ]
WEATHER ALMANAC - SEPTEMBER 15, 2013
[ Next Day → ]
[ °C ]   °F
Weather ElementAverageHighLow
Temperature80.8 °F87.3 °F (10:58 am)76.3 °F (1:58 am)
Dewpoint75.4 °F77 °F (11:53 am)73 °F (7:58 pm)
Humidity84.2 %100 % (11:23 pm)66 % (2:38 pm)
Barometer29.73 in29.84 in (8:48 am)29.62 in (2:58 pm)
Wind Speed6.7 mph13.8 mph (10:58 pm)
Weather ElementAverage
Visibility9.5 mi
Wind DirectionSSW (187.7 °)

Weather ElementTotal
Precipitation0.20 in
Cooling Degree Days16.8 (Base 65)
Growing Degree Days31.8 (Base 50)
Averaged from 48 records on September 15, 2013
WEATHER CONDITIONS BREAKOUT
WIND DIRECTION BREAKOUT
WEATHER BY HOUR - SEPTEMBER 15, 2013
[ °C ]   °F
Local TimeTemperatureDewpointHumidityBarometerVisibilityWind DirectionWind SpeedGust SpeedPrecipitationEventsConditions
1:58 AM76.3 °F74.1 °F93 %29.67 in10.0 miCalmClear
2:58 AM76.5 °F74.8 °F95 %29.66 in10.0 miCalmClear
3:58 AM77.9 °F74.8 °F90 %29.65 in10.0 miNNE (30°)3.5 mphPartly Cloudy
4:58 AM77.4 °F74.7 °F91 %29.66 in10.0 miCalmPartly Cloudy
5:58 AM77.5 °F73.8 °F88 %29.67 in10.0 miNE (40°)4.6 mphClear
6:52 AM78.8 °F75.2 °F89 %29.81 in10.0 miNE (50°)4.6 mphLight Drizzle
6:55 AM78.8 °F75.2 °F89 %29.81 in10.0 miNE (50°)3.5 mphClear
6:58 AM79.5 °F75.6 °F88 %29.69 in10.0 miNE (40°)4.6 mph0.00 inClear
7:58 AM83.5 °F75.0 °F76 %29.70 in10.0 miNE (40°)3.5 mphClear
8:48 AM84.2 °F75.2 °F74 %29.84 in10.0 miCalmMostly Cloudy
8:53 AM84.2 °F75.2 °F74 %29.84 in10.0 miVariable2.3 mphScattered Clouds
8:58 AM84.6 °F74.8 °F72 %29.72 in10.0 miCalmScattered Clouds
9:58 AM87.1 °F75.0 °F67 %29.70 in10.0 miVariable4.6 mphClear
10:58 AM87.3 °F76.3 °F70 %29.68 in10.0 miNorth (10°)5.8 mphPartly Cloudy
11:53 AM86.0 °F77.0 °F74 %29.80 in10.0 miVariable2.3 mphMostly Cloudy
11:58 AM84.7 °F76.8 °F77 %29.67 in10.0 miSSW (210°)9.2 mphMostly Cloudy
12:08 PM82.4 °F75.2 °F79 %29.79 in10.0 miVariable5.8 mphOvercast
12:29 PM82.4 °F75.2 °F79 %29.78 in10.0 miSSE (160°)8.1 mphLight Drizzle
12:39 PM80.6 °F77.0 °F89 %29.78 in2.0 miVariable5.8 mphRainHeavy Rain
12:49 PM80.6 °F75.2 °F84 %29.77 in8.0 miVariable5.8 mphRainLight Rain
12:58 PM81.0 °F75.4 °F83 %29.65 in10.0 miSSW (210°)5.8 mph0.16 inRainLight Rain
1:03 PM82.4 °F75.2 °F79 %29.77 in10.0 miSSW (210°)8.1 mphRainLight Rain
1:04 PM82.4 °F75.2 °F79 %29.77 in10.0 miSSW (210°)6.9 mphScattered Clouds
1:39 PM84.2 °F75.2 °F74 %29.76 in10.0 miWest (270°)9.2 mphMostly Cloudy
1:58 PM82.4 °F75.2 °F79 %29.64 in10.0 miWest (280°)10.4 mph0.00 inOvercast
2:08 PM82.4 °F75.2 °F79 %29.75 in10.0 miWNW (290°)10.4 mphOvercast
2:28 PM84.2 °F77.0 °F79 %29.75 in10.0 miNorth (350°)8.1 mphMostly Cloudy
2:38 PM86.0 °F73.4 °F66 %29.74 in10.0 miNorth (360°)5.8 mphScattered Clouds
2:58 PM85.8 °F75.7 °F72 %29.62 in10.0 miNorth (350°)6.9 mphPartly Cloudy
3:46 PM82.4 °F75.2 °F79 %29.74 in10.0 miWNW (290°)8.1 mphLight Drizzle
3:58 PM81.9 °F76.3 °F83 %29.62 in10.0 miNW (310°)5.8 mph0.01 inRainRain
4:14 PM82.4 °F77.0 °F84 %29.74 in10.0 miNW (320°)8.1 mphClear
4:58 PM83.1 °F75.7 °F78 %29.63 in10.0 miNW (320°)10.4 mph0.00 inClear
5:58 PM81.7 °F75.9 °F83 %29.64 in10.0 miNW (310°)6.9 mphScattered Clouds
6:58 PM79.7 °F76.3 °F89 %29.66 in10.0 miWNW (300°)5.8 mphPartly Cloudy
7:58 PM77.5 °F73.0 °F86 %29.65 in10.0 miNW (310°)8.1 mphPartly Cloudy
8:58 PM78.1 °F74.8 °F90 %29.67 in10.0 miNW (310°)11.5 mphClear
9:45 PM77.0 °F75.2 °F94 %29.80 in10.0 miNW (320°)11.5 mphRainLight Rain
9:50 PM78.8 °F75.2 °F89 %29.80 in10.0 miWNW (300°)12.7 mphRainLight Rain
9:58 PM77.7 °F74.5 °F90 %29.68 in10.0 miWNW (290°)11.5 mph0.00 inRainLight Rain
10:03 PM77.0 °F73.4 °F89 %29.80 in10.0 miWNW (300°)10.4 mphRainLight Rain
10:09 PM77.0 °F73.4 °F89 %29.80 in10.0 miWNW (290°)8.1 mphScattered Clouds
10:58 PM77.4 °F75.6 °F94 %29.68 in10.0 miNW (320°)13.8 mph0.01 inPartly Cloudy
11:23 PM77.0 °F77.0 °F100 %29.79 in5.0 miNW (320°)10.4 mphRainLight Rain
11:28 PM77.0 °F77.0 °F100 %29.78 in4.0 miNW (310°)9.2 mphRainRain
11:33 PM77.0 °F77.0 °F100 %29.78 in6.0 miNW (310°)8.1 mphRainLight Rain
11:48 PM77.0 °F77.0 °F100 %29.79 in10.0 miNW (310°)8.1 mphScattered Clouds
11:58 PM77.7 °F76.6 °F96 %29.67 in10.0 miNW (310°)9.2 mph0.02 inPartly Cloudy
Hourly data recorded from PGUA, located miles away from Mangilao, Guam







STORIES FROM OUR PARTNERS